Regional Weather Roundup
Issued by NWS Northern Indiana

Home | Current Version | Previous Version | Graphics & Text | Print | Product List | Glossary On
Versions: 1 2 3 4 5 6 7 8 9 10 11 12 13 14 15 16 17 18 19 20 21 22 23 24 25 26 27 28 29 30 31 32 33 34 35 36 37 38 39 40 41 42 43 44 45 46 47 48 49 50
000
ASUS43 KIWX 251800
RWRIWX

KIWX WEATHER ROUNDUP
NATIONAL WEATHER SERVICE NORTHERN INDIANA
200 PM EDT SAT APR 25 2015

NOTE: "FAIR" INDICATES FEW OR NO CLOUDS BELOW 12,000 FEET WITH NO
SIGNIFICANT WEATHER AND/OR OBSTRUCTIONS TO VISIBILITY.

* THESE STATIONS ARE NOT UNDER NWS QUALITY CONTROL. THEY ALSO MAY NOT
  REPORT WEATHER SUCH AS PRECIPITATION OR FOG.

INZ001>027-251900-
NORTHERN INDIANA

CITY           SKY/WX    TMP DP  RH WIND       PRES   REMARKS
GARY*          LGT RAIN  46  39  76 E113      29.79R
SOUTH BEND     LGT RAIN  47  44  90 E12       29.79R
6HR MIN TEMP:  44; 6HR MAX TEMP:  48; 6HR PCP:  0.09;

GOSHEN         LGT RAIN  46  41  82 E14       29.77F
6HR MIN TEMP:  42; 6HR MAX TEMP:  47; 6HR PCP:  0.09;

ANGOLA*        PTSUNNY   45  39  81 E12       29.78F
FORT WAYNE     RAIN      44  41  89 E14       29.77S FOG
6HR MIN TEMP:  42; 6HR MAX TEMP:  46; 6HR PCP:  0.17;


$$
INZ028>050-251900-
CENTRAL INDIANA

CITY           SKY/WX    TMP DP  RH WIND       PRES   REMARKS
LAFAYETTE      RAIN      45  43  93 NE17      29.67F FOG
6HR MIN TEMP:  44; 6HR MAX TEMP:  48; 6HR PCP:  0.36;

KOKOMO*        CLOUDY    45  39  81 E20G26    29.68F
6HR MIN TEMP:  43; 6HR MAX TEMP:  46; 6HR PCP:  0.63;

MUNCIE*        LGT RAIN  43  40  89 E20       29.70F FOG
6HR MIN TEMP:  43; 6HR MAX TEMP:  47; 6HR PCP:  0.31;

INDIANAPOLIS   TSTM      46  43  89 E21G28    29.63F FOG
6HR MIN TEMP:  46; 6HR MAX TEMP:  50; 6HR PCP:  0.36;


$$
MIZ043>046-050>051-056>058-064>065-071>073-077>080-251900-
SOUTHWEST LOWER MICHIGAN

CITY           SKY/WX    TMP DP  RH WIND       PRES   REMARKS
BATTLE CREEK   CLOUDY    47  37  68 E13       29.80F
6HR MIN TEMP:  41; 6HR MAX TEMP:  47;

BENTON HARBOR  CLOUDY    48  38  68 E13       29.79R
6HR MIN TEMP:  43; 6HR MAX TEMP:  50;

COLDWATER*     CLOUDY    46  38  73 E13G18    29.79F
6HR MIN TEMP:  42; 6HR MAX TEMP:  47;

HILLSDALE*     CLOUDY    46  37  72 E16G22    29.79F
6HR MIN TEMP:  41; 6HR MAX TEMP:  46;

HOLLAND        CLOUDY    53  39  59 E12G21    29.81F
6HR MIN TEMP:  43; 6HR MAX TEMP:  53;

GRAND RAPIDS   PTSUNNY   51  33  50 E16G25    29.80F
6HR MIN TEMP:  38; 6HR MAX TEMP:  52;

KALAMAZOO      CLOUDY    47  38  71 E12G20    29.81S
6HR MIN TEMP:  43; 6HR MAX TEMP:  49;

STURGIS*       DRIZZLE   46  41  81 E16G22    29.78F
THREE RIVERS*  CLOUDY    47  40  75 E10       29.80S
6HR MIN TEMP:  42; 6HR MAX TEMP:  49;


$$
OHZ001>008-015>018-024>025-251900-
NORTHWEST OHIO

CITY           SKY/WX    TMP DP  RH WIND       PRES   REMARKS
DEFIANCE       PTSUNNY   49  40  71 E14       29.79F
6HR MIN TEMP:  42; 6HR MAX TEMP:  50; 6HR PCP:  0.01;

FINDLAY        CLOUDY    49  40  71 E12       29.78F
6HR MIN TEMP:  43; 6HR MAX TEMP:  49; 6HR PCP:  0.01;

TOLEDO EXPRESS CLOUDY    47  35  63 E16       29.82S
6HR MIN TEMP:  41; 6HR MAX TEMP:  48; 6HR PCP: TRACE;

TOLEDO METCALF CLOUDY    48  37  65 E13       29.83F
6HR MIN TEMP:  42; 6HR MAX TEMP:  48;

LIMA           CLOUDY    48  38  68 E16       29.76F
6HR MIN TEMP:  42; 6HR MAX TEMP:  49; 6HR PCP:  0.04;


$$
AND FOR LAKE MICHIGAN COASTAL AND OPEN LAKE BUOY OBSERVATIONS

STATION/POSITION TEMP    WIND        PRES    VSBY  WAVE
                 AIR SEA DIR/SP/G                  HT/PER
                 (F)     (DEG/KT/KT) (MB)    (MI)  (FT/S)
CALUMET HARBOR    43      50/  8/ 13   N/A
MICHIGAN CITY     45      90/ 15/ 18   N/A
BURNS HARBOR      45      90/  6/ 10 1008.8S
SAINT JOSEPH      50      80/  3/ 12 1009.5R
MICHIGAN CITY     45 45  120/ 14/ 17   N/A           2/ 4
MICHIGAN CITY CG     48              1009.7   3 1/2  2

$$
&&


USA.gov is the U.S. government's official web portal to all federal, state and local government web resources and services.